START_TIME,STEP,MOV.,AL01,t_acc.,AL02,t_acc.,E37,t_acc.,H21,t_acc.
1986-01-26 06:00:35.620 ,2,0,0.,24.0,0.,24.0,0.,24.0,0.,24.0
1986-01-26 06:00:59.620 ,1,1,0.,24.0,0.,24.0,0.,24.0,0.,24.0
1986-01-26 06:01:23.620 ,1,0,0.,24.0,0.,24.0,0.,24.0,0.,24.0
1986-01-26 06:01:47.620 ,0,1,0.,24.0,0.,24.0,0.,24.0,0.,24.0
1986-01-26 06:02:11.620 ,0,0,0.,24.0,0.,24.0,0.,24.0,0.,24.0
1986-01-26 06:02:35.620 ,0,1,0.,24.0,0.,24.0,0.,24.0,0.,24.0
1986-01-26 06:02:59.620 ,0,0,0.,24.0,0.,24.0,0.,24.0,0.,24.0
1986-01-26 06:03:23.620 ,1,1,0.,24.0,0.,24.0,0.,24.0,0.,24.0
1986-01-26 06:03:47.620 ,1,0,0.,24.0,0.,24.0,0.,24.0,0.,24.0
1986-01-26 06:04:11.620 ,2,1,0.,24.0,0.,24.0,0.,24.0,0.,24.0
1986-01-26 06:04:35.620 ,2,0,0.,24.0,0.,24.0,0.,24.0,0.,24.0
1986-01-26 06:04:59.620 ,3,1,0.,24.0,0.,24.0,0.,24.0,0.,24.0
1986-01-26 06:05:23.620 ,3,0,0.,24.0,1.,24.0,0.,24.0,0.,24.0
1986-01-26 06:05:47.620 ,4,1,0.,24.0,0.,24.0,0.,24.0,0.,24.0
1986-01-26 06:06:11.620 ,4,0,0.,24.0,0.,24.0,0.,24.0,0.,24.0
1986-01-26 06:06:35.620 ,5,1,0.,24.0,0.,24.0,0.,24.0,0.,24.0
1986-01-26 06:06:59.620 ,5,0,0.,24.0,0.,24.0,0.,24.0,0.,24.0
1986-01-26 06:07:23.620 ,6,1,0.,24.0,0.,24.0,0.,24.0,0.,24.0
1986-01-26 06:07:47.620 ,6,0,0.,24.0,0.,24.0,0.,24.0,0.,24.0
1986-01-26 06:08:11.620 ,7,1,7.,24.0,0.,24.0,0.,24.0,0.,24.0
1986-01-26 06:08:35.620 ,7,0,29.,24.0,0.,24.0,0.,24.0,0.,24.0
1986-01-26 06:08:59.620 ,7,1,38.,24.0,0.,24.0,0.,24.0,0.,24.0
1986-01-26 06:09:23.620 ,7,0,21.,24.0,0.,24.0,0.,24.0,0.,24.0
1986-01-26 06:09:47.620 ,6,1,23.,24.0,0.,24.0,0.,24.0,0.,24.0
1986-01-26 06:10:11.620 ,6,0,0.,24.0,0.,24.0,0.,24.0,0.,24.0
1986-01-26 06:10:35.620 ,5,1,0.,24.0,0.,24.0,0.,24.0,0.,24.0
1986-01-26 06:10:59.620 ,5,0,0.,24.0,0.,24.0,0.,24.0,0.,24.0
1986-01-26 06:11:23.620 ,4,1,0.,24.0,0.,24.0,0.,24.0,0.,24.0
1986-01-26 06:11:47.620 ,4,0,0.,24.0,0.,24.0,0.,24.0,0.,24.0
1986-01-26 06:12:11.620 ,3,1,0.,24.0,0.,24.0,0.,24.0,0.,24.0
1986-01-26 06:12:35.620 ,3,0,0.,24.0,0.,24.0,0.,24.0,0.,24.0
1986-01-26 06:12:59.620 ,2,1,0.,24.0,0.,24.0,0.,24.0,0.,24.0
1986-01-26 06:13:23.620 ,2,0,0.,24.0,0.,24.0,0.,24.0,0.,24.0
1986-01-26 06:13:47.620 ,1,1,0.,24.0,0.,24.0,0.,24.0,0.,24.0
1986-01-26 06:14:11.620 ,1,0,0.,24.0,0.,24.0,0.,24.0,0.,24.0
1986-01-26 06:14:35.620 ,0,1,0.,24.0,0.,24.0,0.,24.0,0.,24.0
1986-01-26 06:14:59.620 ,0,0,0.,24.0,0.,24.0,0.,24.0,0.,24.0
1986-01-26 06:15:23.620 ,0,1,0.,24.0,0.,24.0,0.,24.0,0.,24.0
1986-01-26 06:15:47.620 ,0,0,0.,24.0,0.,24.0,0.,24.0,0.,24.0
1986-01-26 06:16:11.620 ,1,1,0.,24.0,0.,24.0,0.,24.0,0.,24.0
1986-01-26 06:16:35.620 ,1,0,0.,24.0,0.,24.0,0.,24.0,0.,24.0
1986-01-26 06:16:59.620 ,2,1,0.,24.0,0.,24.0,0.,24.0,0.,24.0
1986-01-26 06:17:23.620 ,2,0,0.,24.0,0.,24.0,0.,24.0,0.,24.0
1986-01-26 06:17:47.620 ,3,1,0.,24.0,0.,24.0,0.,24.0,0.,24.0
1986-01-26 06:18:11.620 ,3,0,0.,24.0,0.,24.0,0.,24.0,0.,24.0
1986-01-26 06:18:35.620 ,4,1,0.,24.0,0.,24.0,0.,24.0,0.,24.0
1986-01-26 06:18:59.620 ,4,0,0.,24.0,0.,24.0,0.,24.0,0.,24.0
1986-01-26 06:19:23.620 ,5,1,0.,24.0,0.,24.0,0.,24.0,0.,24.0
1986-01-26 06:19:47.620 ,5,0,0.,24.0,0.,24.0,0.,24.0,0.,24.0
1986-01-26 06:20:11.620 ,6,1,0.,24.0,0.,24.0,0.,24.0,0.,24.0
1986-01-26 06:20:35.620 ,6,0,1.,24.0,0.,24.0,0.,24.0,0.,24.0
1986-01-26 06:20:59.620 ,7,1,4.,24.0,0.,24.0,0.,24.0,0.,24.0
1986-01-26 06:21:23.620 ,7,0,25.,24.0,0.,24.0,0.,24.0,0.,24.0
1986-01-26 06:21:47.620 ,7,1,30.,24.0,0.,24.0,0.,24.0,0.,24.0
1986-01-26 06:22:11.620 ,7,0,21.,24.0,0.,24.0,0.,24.0,0.,24.0
1986-01-26 06:22:35.620 ,6,1,20.,24.0,0.,24.0,0.,24.0,0.,24.0
1986-01-26 06:22:59.620 ,6,0,0.,24.0,0.,24.0,0.,24.0,0.,24.0
1986-01-26 06:23:23.620 ,5,1,0.,24.0,0.,24.0,0.,24.0,0.,24.0
1986-01-26 06:23:47.620 ,5,0,0.,24.0,0.,24.0,0.,24.0,0.,24.0
1986-01-26 06:24:11.620 ,4,1,0.,24.0,1.,24.0,0.,24.0,0.,24.0
1986-01-26 06:24:35.620 ,4,0,0.,24.0,0.,24.0,0.,24.0,0.,24.0
1986-01-26 06:24:59.620 ,3,1,0.,24.0,0.,24.0,0.,24.0,0.,24.0
1986-01-26 06:25:23.620 ,3,0,0.,24.0,0.,24.0,0.,24.0,0.,24.0
1986-01-26 06:25:47.620 ,2,1,0.,24.0,0.,24.0,0.,24.0,0.,24.0
1986-01-26 06:26:11.620 ,2,0,0.,24.0,0.,24.0,0.,24.0,0.,24.0
1986-01-26 06:26:35.620 ,1,1,0.,24.0,1.,24.0,0.,24.0,0.,24.0
1986-01-26 06:26:59.620 ,1,0,0.,24.0,1.,24.0,0.,24.0,0.,24.0
1986-01-26 06:27:23.620 ,0,1,0.,24.0,0.,24.0,0.,24.0,0.,24.0
1986-01-26 06:27:47.620 ,0,0,0.,24.0,0.,24.0,0.,24.0,0.,24.0
1986-01-26 06:28:11.620 ,0,1,0.,24.0,0.,24.0,0.,24.0,0.,24.0
1986-01-26 06:28:35.620 ,0,0,0.,24.0,0.,24.0,0.,24.0,0.,24.0
1986-01-26 06:28:59.620 ,1,1,0.,24.0,0.,24.0,0.,24.0,0.,24.0
1986-01-26 06:29:23.620 ,1,0,0.,24.0,0.,24.0,0.,24.0,0.,24.0
1986-01-26 06:29:47.620 ,2,1,0.,24.0,0.,24.0,0.,24.0,0.,24.0
1986-01-26 06:30:11.620 ,2,0,0.,24.0,0.,24.0,0.,24.0,0.,24.0
1986-01-26 06:30:35.620 ,3,1,0.,24.0,0.,24.0,0.,24.0,0.,24.0
1986-01-26 06:30:59.620 ,3,0,0.,24.0,0.,24.0,0.,24.0,0.,24.0
1986-01-26 06:31:23.620 ,4,1,0.,24.0,0.,24.0,0.,24.0,0.,24.0
1986-01-26 06:31:47.620 ,4,0,0.,24.0,0.,24.0,0.,24.0,0.,24.0
1986-01-26 06:32:11.620 ,5,1,0.,24.0,0.,24.0,0.,24.0,0.,24.0
1986-01-26 06:32:35.620 ,5,0,1.,24.0,0.,24.0,0.,24.0,0.,24.0
1986-01-26 06:32:59.620 ,6,1,0.,24.0,0.,24.0,0.,24.0,0.,24.0
1986-01-26 06:33:23.620 ,6,0,0.,24.0,0.,24.0,0.,24.0,0.,24.0
1986-01-26 06:33:47.620 ,7,1,13.,24.0,0.,24.0,0.,24.0,0.,24.0
1986-01-26 06:34:11.620 ,7,0,26.,24.0,0.,24.0,0.,24.0,0.,24.0
1986-01-26 06:34:35.620 ,7,1,32.,24.0,0.,24.0,0.,24.0,0.,24.0
1986-01-26 06:34:59.620 ,7,0,31.,24.0,0.,24.0,0.,24.0,0.,24.0
1986-01-26 06:35:23.620 ,6,1,28.,24.0,0.,24.0,0.,24.0,0.,24.0
1986-01-26 06:35:47.620 ,6,0,0.,24.0,0.,24.0,0.,24.0,0.,24.0
1986-01-26 06:36:11.620 ,5,1,0.,24.0,0.,24.0,0.,24.0,0.,24.0
1986-01-26 06:36:35.620 ,5,0,0.,24.0,0.,24.0,0.,24.0,0.,24.0
1986-01-26 06:36:59.620 ,4,1,0.,24.0,0.,24.0,0.,24.0,0.,24.0
1986-01-26 06:37:23.620 ,4,0,0.,24.0,0.,24.0,0.,24.0,0.,24.0
1986-01-26 06:37:47.620 ,3,1,0.,24.0,0.,24.0,0.,24.0,0.,24.0
1986-01-26 06:38:11.620 ,3,0,0.,24.0,0.,24.0,0.,24.0,0.,24.0
1986-01-26 06:38:35.620 ,2,1,0.,24.0,1.,24.0,0.,24.0,0.,24.0
1986-01-26 06:38:59.620 ,2,0,0.,24.0,0.,24.0,0.,24.0,0.,24.0
1986-01-26 06:39:23.620 ,1,1,0.,24.0,0.,24.0,0.,24.0,0.,24.0
1986-01-26 06:39:47.620 ,1,0,0.,24.0,0.,24.0,0.,24.0,0.,24.0
1986-01-26 06:40:11.620 ,0,1,0.,24.0,0.,24.0,0.,24.0,0.,24.0
1986-01-26 06:40:35.620 ,0,0,0.,24.0,0.,24.0,0.,24.0,0.,24.0
1986-01-26 06:40:59.620 ,0,1,0.,24.0,0.,24.0,0.,24.0,0.,24.0
1986-01-26 06:41:23.620 ,0,0,0.,24.0,0.,24.0,0.,24.0,0.,24.0
1986-01-26 06:41:47.620 ,1,1,0.,24.0,0.,24.0,0.,24.0,0.,24.0
1986-01-26 06:42:11.620 ,1,0,0.,24.0,0.,24.0,0.,24.0,0.,24.0
1986-01-26 06:42:35.620 ,2,1,0.,24.0,0.,24.0,0.,24.0,0.,24.0
1986-01-26 06:42:59.620 ,2,0,0.,24.0,0.,24.0,0.,24.0,0.,24.0
1986-01-26 06:43:23.620 ,3,1,0.,24.0,0.,24.0,0.,24.0,0.,24.0
1986-01-26 06:43:47.620 ,3,0,0.,24.0,0.,24.0,0.,24.0,0.,24.0
1986-01-26 06:44:11.620 ,4,1,0.,24.0,0.,24.0,0.,24.0,0.,24.0
1986-01-26 06:44:35.620 ,4,0,1.,24.0,0.,24.0,0.,24.0,0.,24.0
1986-01-26 06:44:59.620 ,5,1,0.,24.0,0.,24.0,0.,24.0,0.,24.0
1986-01-26 06:45:23.620 ,5,0,0.,24.0,0.,24.0,0.,24.0,0.,24.0
1986-01-26 06:45:47.620 ,6,1,0.,24.0,0.,24.0,0.,24.0,0.,24.0
1986-01-26 06:46:11.620 ,6,0,0.,24.0,0.,24.0,0.,24.0,0.,24.0
1986-01-26 06:46:35.620 ,7,1,2.,24.0,0.,24.0,0.,24.0,0.,24.0
1986-01-26 06:46:59.620 ,7,0,27.,24.0,0.,24.0,0.,24.0,0.,24.0
1986-01-26 06:47:23.620 ,7,1,28.,24.0,1.,24.0,0.,24.0,0.,24.0
1986-01-26 06:47:47.620 ,7,0,33.,24.0,0.,24.0,0.,24.0,0.,24.0
1986-01-26 06:48:11.620 ,6,1,19.,24.0,0.,24.0,0.,24.0,0.,24.0
1986-01-26 06:48:35.620 ,6,0,0.,24.0,0.,24.0,0.,24.0,0.,24.0
1986-01-26 06:48:59.620 ,5,1,0.,24.0,0.,24.0,0.,24.0,0.,24.0
1986-01-26 06:49:23.620 ,5,0,0.,24.0,0.,24.0,0.,24.0,0.,24.0
1986-01-26 06:49:47.620 ,4,1,0.,24.0,0.,24.0,0.,24.0,0.,24.0
1986-01-26 06:50:11.620 ,4,0,0.,24.0,0.,24.0,0.,24.0,0.,24.0
1986-01-26 06:50:35.620 ,3,1,0.,24.0,0.,24.0,0.,24.0,0.,24.0
1986-01-26 06:50:59.620 ,3,0,0.,24.0,0.,24.0,0.,24.0,0.,24.0
1986-01-26 06:51:23.620 ,2,1,0.,24.0,0.,24.0,0.,24.0,0.,24.0
1986-01-26 06:51:47.620 ,2,0,0.,24.0,0.,24.0,0.,24.0,0.,24.0
1986-01-26 06:52:11.620 ,1,1,0.,24.0,0.,24.0,0.,24.0,0.,24.0
1986-01-26 06:52:35.620 ,1,0,0.,24.0,0.,24.0,0.,24.0,0.,24.0
1986-01-26 06:52:59.620 ,0,1,0.,24.0,0.,24.0,0.,24.0,0.,24.0
1986-01-26 06:53:23.620 ,0,0,0.,24.0,0.,24.0,0.,24.0,0.,24.0
1986-01-26 06:53:47.610 ,0,1,0.,24.0,0.,24.0,0.,24.0,0.,24.0
1986-01-26 06:54:11.610 ,0,0,0.,24.0,0.,24.0,0.,24.0,0.,24.0
1986-01-26 06:54:35.610 ,1,1,0.,24.0,0.,24.0,0.,24.0,0.,24.0
1986-01-26 06:54:59.610 ,1,0,0.,24.0,0.,24.0,0.,24.0,0.,24.0
1986-01-26 06:55:23.610 ,2,1,0.,24.0,0.,24.0,0.,24.0,0.,24.0
1986-01-26 06:55:47.610 ,2,0,0.,24.0,0.,24.0,0.,24.0,0.,24.0
1986-01-26 06:56:11.610 ,3,1,0.,24.0,0.,24.0,0.,24.0,0.,24.0
1986-01-26 06:56:35.610 ,3,0,0.,24.0,0.,24.0,0.,24.0,0.,24.0
1986-01-26 06:56:59.610 ,4,1,0.,24.0,0.,24.0,0.,24.0,0.,24.0
1986-01-26 06:57:23.610 ,4,0,0.,24.0,0.,24.0,0.,24.0,0.,24.0
1986-01-26 06:57:47.610 ,5,1,0.,24.0,0.,24.0,0.,24.0,0.,24.0
1986-01-26 06:58:11.610 ,5,0,0.,24.0,0.,24.0,0.,24.0,0.,24.0
1986-01-26 06:58:35.610 ,6,1,0.,24.0,0.,24.0,0.,24.0,0.,24.0
1986-01-26 06:58:59.610 ,6,0,0.,24.0,0.,24.0,0.,24.0,0.,24.0
1986-01-26 06:59:23.610 ,7,1,8.,24.0,0.,24.0,0.,24.0,0.,24.0
1986-01-26 06:59:47.610 ,0,0,31.,24.0,0.,24.0,0.,24.0,0.,24.0
1986-01-26 07:20:58.410 ,0,0,,0,,0,,0,,0
1986-01-26 07:20:59.610 ,0,0,0.,24.0,1.,24.0,0.,24.0,0.,24.0
1986-01-26 07:21:23.610 ,0,0,0.,24.0,0.,24.0,0.,24.0,0.,24.0
1986-01-26 07:21:47.610 ,3,1,0.,24.0,0.,24.0,0.,24.0,0.,24.0
1986-01-26 07:22:11.610 ,3,0,0.,24.0,0.,24.0,0.,24.0,0.,24.0
1986-01-26 07:22:35.610 ,4,1,0.,24.0,0.,24.0,0.,24.0,0.,24.0
1986-01-26 07:22:59.610 ,4,0,0.,24.0,0.,24.0,0.,24.0,0.,24.0
1986-01-26 07:23:23.610 ,5,1,0.,24.0,1.,24.0,0.,24.0,0.,24.0
1986-01-26 07:23:47.610 ,5,0,0.,24.0,0.,24.0,0.,24.0,0.,24.0
1986-01-26 07:24:11.610 ,6,1,0.,24.0,1.,24.0,0.,24.0,0.,24.0
1986-01-26 07:24:35.610 ,6,0,0.,24.0,0.,24.0,0.,24.0,0.,24.0
1986-01-26 07:24:59.610 ,7,1,10.,24.0,0.,24.0,0.,24.0,0.,24.0
1986-01-26 07:25:23.610 ,7,0,33.,24.0,0.,24.0,0.,24.0,0.,24.0
1986-01-26 07:25:47.610 ,7,1,29.,24.0,0.,24.0,0.,24.0,0.,24.0
1986-01-26 07:26:11.610 ,7,0,30.,24.0,0.,24.0,0.,24.0,0.,24.0
1986-01-26 07:26:11.610 ,7,0,30.,24.0,0.,24.0,0.,24.0,0.,24.0
1986-01-26 07:26:35.610 ,6,1,32.,24.0,0.,24.0,0.,24.0,0.,24.0
1986-01-26 07:26:59.610 ,6,0,0.,24.0,0.,24.0,0.,24.0,0.,24.0
1986-01-26 07:27:23.610 ,5,1,0.,24.0,0.,24.0,0.,24.0,0.,24.0
1986-01-26 07:27:47.610 ,5,0,0.,24.0,0.,24.0,0.,24.0,0.,24.0
1986-01-26 07:28:11.610 ,4,1,0.,24.0,0.,24.0,0.,24.0,0.,24.0
1986-01-26 07:28:35.610 ,4,0,0.,24.0,0.,24.0,0.,24.0,0.,24.0
1986-01-26 07:28:59.610 ,3,1,0.,24.0,0.,24.0,0.,24.0,0.,24.0
1986-01-26 07:29:23.610 ,3,0,0.,24.0,0.,24.0,0.,24.0,0.,24.0
1986-01-26 07:29:47.610 ,2,1,0.,24.0,0.,24.0,0.,24.0,0.,24.0
1986-01-26 07:30:11.610 ,2,0,0.,24.0,0.,24.0,0.,24.0,0.,24.0
1986-01-26 07:30:35.610 ,1,1,0.,24.0,0.,24.0,0.,24.0,0.,24.0
1986-01-26 07:30:59.610 ,1,0,0.,24.0,0.,24.0,0.,24.0,0.,24.0
1986-01-26 07:31:23.610 ,0,1,0.,24.0,1.,24.0,0.,24.0,0.,24.0
1986-01-26 07:31:47.610 ,0,0,0.,24.0,0.,24.0,0.,24.0,0.,24.0
1986-01-26 07:32:11.610 ,0,1,0.,24.0,0.,24.0,0.,24.0,0.,24.0
1986-01-26 07:32:35.610 ,0,0,0.,24.0,0.,24.0,0.,24.0,0.,24.0
1986-01-26 07:32:59.610 ,1,1,0.,24.0,0.,24.0,0.,24.0,0.,24.0
1986-01-26 07:33:23.610 ,1,0,0.,24.0,0.,24.0,0.,24.0,0.,24.0
1986-01-26 07:33:47.610 ,2,1,0.,24.0,0.,24.0,0.,24.0,0.,24.0
1986-01-26 07:34:11.610 ,2,0,0.,24.0,0.,24.0,0.,24.0,0.,24.0
1986-01-26 07:34:35.610 ,3,1,0.,24.0,0.,24.0,0.,24.0,0.,24.0
1986-01-26 07:34:59.610 ,3,0,1.,24.0,0.,24.0,0.,24.0,0.,24.0
1986-01-26 07:35:23.610 ,4,1,0.,24.0,0.,24.0,0.,24.0,0.,24.0
1986-01-26 07:35:47.610 ,4,0,0.,24.0,0.,24.0,0.,24.0,0.,24.0
1986-01-26 07:36:11.610 ,5,1,0.,24.0,0.,24.0,0.,24.0,0.,24.0
1986-01-26 07:36:35.610 ,5,0,0.,24.0,1.,24.0,0.,24.0,0.,24.0
1986-01-26 07:36:59.610 ,6,1,0.,24.0,0.,24.0,0.,24.0,0.,24.0
1986-01-26 07:37:23.610 ,6,0,0.,24.0,0.,24.0,0.,24.0,0.,24.0
1986-01-26 07:37:47.610 ,7,1,6.,24.0,0.,24.0,0.,24.0,0.,24.0
1986-01-26 07:38:11.610 ,7,0,29.,24.0,0.,24.0,0.,24.0,0.,24.0
1986-01-26 07:38:35.610 ,7,1,28.,24.0,0.,24.0,0.,24.0,0.,24.0
1986-01-26 07:38:59.610 ,7,0,38.,24.0,0.,24.0,0.,24.0,0.,24.0
1986-01-26 07:39:23.610 ,6,1,23.,24.0,0.,24.0,0.,24.0,0.,24.0
1986-01-26 07:39:47.610 ,6,0,0.,24.0,0.,24.0,0.,24.0,0.,24.0
1986-01-26 07:40:11.610 ,5,1,0.,24.0,0.,24.0,0.,24.0,0.,24.0
1986-01-26 07:40:35.610 ,5,0,1.,24.0,0.,24.0,0.,24.0,0.,24.0
1986-01-26 07:40:59.610 ,4,1,0.,24.0,0.,24.0,0.,24.0,0.,24.0
1986-01-26 07:41:23.610 ,4,0,0.,24.0,0.,24.0,0.,24.0,0.,24.0
1986-01-26 07:41:47.610 ,3,1,0.,24.0,0.,24.0,0.,24.0,0.,24.0
1986-01-26 07:42:11.610 ,3,0,0.,24.0,0.,24.0,0.,24.0,0.,24.0
1986-01-26 07:42:35.610 ,2,1,0.,24.0,0.,24.0,0.,24.0,0.,24.0
1986-01-26 07:42:59.610 ,2,0,0.,24.0,0.,24.0,0.,24.0,0.,24.0
1986-01-26 07:43:23.610 ,1,1,0.,24.0,0.,24.0,0.,24.0,0.,24.0
1986-01-26 07:43:47.610 ,1,0,0.,24.0,0.,24.0,0.,24.0,0.,24.0
1986-01-26 07:44:11.610 ,0,1,0.,24.0,0.,24.0,0.,24.0,0.,24.0
1986-01-26 07:44:35.610 ,0,0,0.,24.0,0.,24.0,0.,24.0,0.,24.0
1986-01-26 07:44:59.610 ,0,1,0.,24.0,0.,24.0,0.,24.0,0.,24.0
1986-01-26 07:45:23.610 ,0,0,0.,24.0,0.,24.0,0.,24.0,0.,24.0
1986-01-26 07:45:47.610 ,1,1,0.,24.0,0.,24.0,0.,24.0,0.,24.0
1986-01-26 07:46:11.610 ,1,0,0.,24.0,0.,24.0,0.,24.0,0.,24.0
1986-01-26 07:46:35.610 ,2,1,0.,24.0,0.,24.0,0.,24.0,0.,24.0
1986-01-26 07:46:59.610 ,2,0,0.,24.0,0.,24.0,0.,24.0,0.,24.0
1986-01-26 07:47:23.610 ,3,1,0.,24.0,0.,24.0,0.,24.0,0.,24.0
1986-01-26 07:47:47.610 ,3,0,0.,24.0,0.,24.0,0.,24.0,0.,24.0
1986-01-26 07:48:11.610 ,4,1,0.,24.0,0.,24.0,0.,24.0,0.,24.0
1986-01-26 07:48:35.610 ,4,0,0.,24.0,0.,24.0,0.,24.0,0.,24.0
1986-01-26 07:48:59.610 ,5,1,0.,24.0,0.,24.0,0.,24.0,0.,24.0
1986-01-26 07:49:23.610 ,5,0,0.,24.0,0.,24.0,0.,24.0,0.,24.0
1986-01-26 07:49:47.610 ,6,1,0.,24.0,0.,24.0,0.,24.0,0.,24.0
1986-01-26 07:50:11.610 ,6,0,0.,24.0,0.,24.0,0.,24.0,0.,24.0
1986-01-26 07:50:35.610 ,7,1,6.,24.0,0.,24.0,0.,24.0,0.,24.0
1986-01-26 07:50:59.610 ,7,0,32.,24.0,0.,24.0,0.,24.0,0.,24.0
1986-01-26 07:51:23.610 ,7,1,23.,24.0,0.,24.0,0.,24.0,0.,24.0
1986-01-26 07:51:47.610 ,7,0,34.,24.0,0.,24.0,0.,24.0,0.,24.0
1986-01-26 07:52:11.610 ,6,1,28.,24.0,0.,24.0,0.,24.0,0.,24.0
1986-01-26 07:52:35.610 ,6,0,0.,24.0,0.,24.0,0.,24.0,0.,24.0
1986-01-26 07:52:59.610 ,5,1,0.,24.0,0.,24.0,0.,24.0,0.,24.0
1986-01-26 07:53:23.610 ,5,0,0.,24.0,0.,24.0,0.,24.0,0.,24.0
1986-01-26 07:53:47.610 ,4,1,0.,24.0,0.,24.0,0.,24.0,0.,24.0
1986-01-26 07:54:11.610 ,4,0,0.,24.0,0.,24.0,0.,24.0,0.,24.0
1986-01-26 07:54:35.610 ,3,1,0.,24.0,0.,24.0,0.,24.0,0.,24.0
1986-01-26 07:54:59.610 ,3,0,,0,,0,,0,,0
1986-01-26 07:55:23.610 ,2,1,0.,24.0,0.,24.0,0.,24.0,0.,24.0
1986-01-26 07:55:47.610 ,2,0,0.,24.0,0.,24.0,0.,24.0,0.,24.0
1986-01-26 07:56:11.610 ,1,1,0.,24.0,0.,24.0,0.,24.0,0.,24.0
1986-01-26 07:56:35.610 ,1,0,0.,24.0,0.,24.0,0.,24.0,0.,24.0
1986-01-26 07:56:59.610 ,0,1,0.,24.0,0.,24.0,0.,24.0,0.,24.0
1986-01-26 07:57:23.610 ,0,0,0.,24.0,0.,24.0,0.,24.0,0.,24.0
1986-01-26 07:57:47.610 ,0,1,0.,24.0,0.,24.0,0.,24.0,0.,24.0
1986-01-26 07:58:11.610 ,0,0,0.,24.0,0.,24.0,0.,24.0,0.,24.0
1986-01-26 07:58:35.610 ,1,1,0.,24.0,0.,24.0,0.,24.0,0.,24.0
1986-01-26 07:58:59.610 ,1,0,0.,24.0,0.,24.0,0.,24.0,0.,24.0
1986-01-26 07:59:23.610 ,2,1,0.,24.0,0.,24.0,0.,24.0,0.,24.0
1986-01-26 07:59:47.610 ,2,0,0.,24.0,0.,24.0,0.,24.0,0.,24.0
1986-01-26 08:00:11.610 ,3,1,0.,24.0,0.,24.0,0.,24.0,0.,24.0
1986-01-26 08:00:35.610 ,3,0,0.,24.0,0.,24.0,0.,24.0,0.,24.0
1986-01-26 08:00:59.610 ,4,1,0.,24.0,0.,24.0,0.,24.0,0.,24.0
1986-01-26 08:01:23.610 ,4,0,0.,24.0,0.,24.0,0.,24.0,0.,24.0
1986-01-26 08:01:47.610 ,5,1,0.,24.0,0.,24.0,0.,24.0,0.,24.0
1986-01-26 08:02:11.610 ,5,0,0.,24.0,0.,24.0,0.,24.0,0.,24.0
1986-01-26 08:02:35.610 ,6,1,0.,24.0,0.,24.0,0.,24.0,0.,24.0
1986-01-26 08:02:59.610 ,6,0,0.,24.0,0.,24.0,0.,24.0,0.,24.0
1986-01-26 08:03:23.610 ,7,1,6.,24.0,0.,24.0,0.,24.0,0.,24.0
1986-01-26 08:03:47.610 ,7,0,26.,24.0,0.,24.0,0.,24.0,0.,24.0
1986-01-26 08:04:11.610 ,7,1,28.,24.0,0.,24.0,0.,24.0,0.,24.0
1986-01-26 08:04:35.610 ,7,0,28.,24.0,0.,24.0,0.,24.0,0.,24.0
1986-01-26 08:04:59.610 ,6,1,20.,24.0,0.,24.0,0.,24.0,0.,24.0
1986-01-26 08:05:23.610 ,6,0,1.,24.0,0.,24.0,0.,24.0,0.,24.0
1986-01-26 08:05:47.610 ,5,1,0.,24.0,0.,24.0,0.,24.0,0.,24.0
1986-01-26 08:06:11.610 ,5,0,0.,24.0,0.,24.0,0.,24.0,0.,24.0
1986-01-26 08:06:35.610 ,4,1,0.,24.0,0.,24.0,0.,24.0,0.,24.0
1986-01-26 08:06:59.610 ,4,0,0.,24.0,0.,24.0,0.,24.0,0.,24.0
1986-01-26 08:07:23.610 ,3,1,0.,24.0,0.,24.0,0.,24.0,0.,24.0
1986-01-26 08:07:47.610 ,3,0,0.,24.0,0.,24.0,0.,24.0,0.,24.0
1986-01-26 08:08:11.610 ,2,1,0.,24.0,0.,24.0,0.,24.0,0.,24.0
1986-01-26 08:08:35.610 ,2,0,0.,24.0,0.,24.0,0.,24.0,0.,24.0
1986-01-26 08:08:59.610 ,1,1,0.,24.0,0.,24.0,0.,24.0,0.,24.0
1986-01-26 08:09:23.610 ,1,0,0.,24.0,0.,24.0,0.,24.0,0.,24.0
1986-01-26 08:09:47.610 ,0,1,0.,24.0,0.,24.0,0.,24.0,0.,24.0
1986-01-26 08:10:11.610 ,0,0,0.,24.0,0.,24.0,0.,24.0,0.,24.0
1986-01-26 08:10:35.610 ,0,1,1.,24.0,0.,24.0,0.,24.0,0.,24.0
1986-01-26 08:10:59.610 ,0,0,0.,24.0,0.,24.0,0.,24.0,0.,24.0
1986-01-26 08:11:23.610 ,1,1,0.,24.0,0.,24.0,0.,24.0,0.,24.0
1986-01-26 08:11:47.610 ,1,0,0.,24.0,0.,24.0,0.,24.0,0.,24.0
1986-01-26 08:12:11.610 ,2,1,0.,24.0,0.,24.0,0.,24.0,0.,24.0
1986-01-26 08:12:35.610 ,2,0,0.,24.0,0.,24.0,0.,24.0,0.,24.0
1986-01-26 08:12:59.610 ,3,1,0.,24.0,0.,24.0,0.,24.0,0.,24.0
1986-01-26 08:13:23.610 ,3,0,0.,24.0,0.,24.0,0.,24.0,0.,24.0
1986-01-26 08:13:47.610 ,4,1,0.,24.0,0.,24.0,0.,24.0,0.,24.0
1986-01-26 08:14:11.610 ,4,0,0.,24.0,0.,24.0,0.,24.0,0.,24.0
1986-01-26 08:14:35.610 ,5,1,0.,24.0,0.,24.0,0.,24.0,0.,24.0
1986-01-26 08:14:59.610 ,5,0,0.,24.0,0.,24.0,0.,24.0,0.,24.0
1986-01-26 08:15:23.610 ,6,1,0.,24.0,1.,24.0,0.,24.0,0.,24.0
1986-01-26 08:15:47.610 ,6,0,0.,24.0,0.,24.0,0.,24.0,0.,24.0
1986-01-26 08:16:11.610 ,7,1,8.,24.0,0.,24.0,0.,24.0,0.,24.0
1986-01-26 08:16:35.610 ,7,0,34.,24.0,0.,24.0,0.,24.0,0.,24.0
1986-01-26 08:16:59.610 ,7,1,30.,24.0,1.,24.0,0.,24.0,0.,24.0
1986-01-26 08:17:23.610 ,7,0,29.,24.0,0.,24.0,0.,24.0,0.,24.0
1986-01-26 08:17:47.610 ,6,1,20.,24.0,0.,24.0,0.,24.0,0.,24.0
1986-01-26 08:18:11.610 ,6,0,0.,24.0,0.,24.0,0.,24.0,0.,24.0
1986-01-26 08:18:35.610 ,5,1,0.,24.0,0.,24.0,0.,24.0,0.,24.0
1986-01-26 08:18:59.610 ,5,0,0.,24.0,0.,24.0,0.,24.0,0.,24.0
1986-01-26 08:19:23.610 ,4,1,0.,24.0,0.,24.0,0.,24.0,0.,24.0
1986-01-26 08:19:47.610 ,4,0,,0,,0,,0,,0
1986-01-26 08:20:11.610 ,3,1,,0,,0,,0,,0
1986-01-26 08:20:35.610 ,3,0,0.,24.0,0.,24.0,0.,24.0,0.,24.0
1986-01-26 08:20:59.610 ,2,1,0.,24.0,0.,24.0,0.,24.0,0.,24.0
1986-01-26 08:21:23.610 ,2,0,0.,24.0,0.,24.0,0.,24.0,0.,24.0
1986-01-26 08:21:47.610 ,1,1,0.,24.0,0.,24.0,0.,24.0,0.,24.0
1986-01-26 08:22:11.610 ,1,0,0.,24.0,0.,24.0,0.,24.0,0.,24.0
1986-01-26 08:22:35.610 ,0,1,0.,24.0,0.,24.0,0.,24.0,0.,24.0
1986-01-26 08:22:59.610 ,0,0,0.,24.0,0.,24.0,0.,24.0,0.,24.0
1986-01-26 08:23:23.610 ,0,1,0.,24.0,0.,24.0,0.,24.0,0.,24.0
1986-01-26 08:23:47.610 ,0,0,0.,24.0,0.,24.0,0.,24.0,0.,24.0
1986-01-26 08:24:11.610 ,1,1,0.,24.0,0.,24.0,0.,24.0,0.,24.0
1986-01-26 08:24:35.610 ,1,0,0.,24.0,0.,24.0,0.,24.0,0.,24.0
1986-01-26 08:24:59.610 ,2,1,0.,24.0,0.,24.0,0.,24.0,0.,24.0
1986-01-26 08:25:23.610 ,2,0,0.,24.0,0.,24.0,0.,24.0,0.,24.0
1986-01-26 08:25:47.610 ,3,1,0.,24.0,0.,24.0,0.,24.0,0.,24.0
1986-01-26 08:26:11.610 ,3,0,0.,24.0,0.,24.0,0.,24.0,0.,24.0
1986-01-26 08:26:35.610 ,4,1,0.,24.0,0.,24.0,0.,24.0,0.,24.0
1986-01-26 08:26:59.610 ,4,0,0.,24.0,0.,24.0,0.,24.0,0.,24.0
1986-01-26 08:27:23.610 ,5,1,0.,24.0,0.,24.0,0.,24.0,0.,24.0
1986-01-26 08:27:47.610 ,5,0,0.,24.0,0.,24.0,0.,24.0,0.,24.0
1986-01-26 08:28:11.610 ,6,1,0.,24.0,1.,24.0,0.,24.0,0.,24.0
1986-01-26 08:28:35.610 ,6,0,0.,24.0,0.,24.0,0.,24.0,0.,24.0
1986-01-26 08:28:59.610 ,7,1,6.,24.0,0.,24.0,0.,24.0,0.,24.0
1986-01-26 08:29:23.610 ,7,0,38.,24.0,0.,24.0,0.,24.0,0.,24.0
1986-01-26 08:29:47.610 ,7,1,35.,24.0,0.,24.0,0.,24.0,0.,24.0
1986-01-26 08:30:11.610 ,7,0,30.,24.0,0.,24.0,0.,24.0,0.,24.0
1986-01-26 08:30:35.610 ,6,1,20.,24.0,0.,24.0,0.,24.0,0.,24.0
1986-01-26 08:30:59.610 ,6,0,0.,24.0,0.,24.0,0.,24.0,0.,24.0
1986-01-26 08:31:23.610 ,5,1,1.,24.0,0.,24.0,0.,24.0,0.,24.0
1986-01-26 08:31:47.610 ,5,0,0.,24.0,0.,24.0,0.,24.0,0.,24.0
1986-01-26 08:32:11.610 ,4,1,0.,24.0,0.,24.0,0.,24.0,0.,24.0
1986-01-26 08:32:35.610 ,4,0,0.,24.0,0.,24.0,0.,24.0,0.,24.0
1986-01-26 08:32:59.610 ,3,1,0.,24.0,0.,24.0,0.,24.0,0.,24.0
1986-01-26 08:33:23.610 ,3,0,0.,24.0,0.,24.0,0.,24.0,0.,24.0
1986-01-26 08:33:47.610 ,2,1,0.,24.0,0.,24.0,0.,24.0,0.,24.0
1986-01-26 08:34:11.610 ,2,0,0.,24.0,0.,24.0,0.,24.0,0.,24.0
1986-01-26 08:34:35.610 ,1,1,0.,24.0,0.,24.0,0.,24.0,0.,24.0
1986-01-26 08:34:59.610 ,0,0,,0,,0,,0,,0
1986-01-26 08:35:52.410 ,0,0,0.,24.0,0.,24.0,0.,24.0,0.,24.0
1986-01-26 08:36:11.610 ,0,1,0.,24.0,0.,24.0,0.,24.0,0.,24.0
1986-01-26 08:36:35.610 ,0,0,0.,24.0,0.,24.0,0.,24.0,0.,24.0
1986-01-26 08:36:59.610 ,1,1,0.,24.0,0.,24.0,0.,24.0,0.,24.0
1986-01-26 08:37:23.610 ,1,0,0.,24.0,0.,24.0,0.,24.0,0.,24.0
1986-01-26 08:37:47.610 ,2,1,0.,24.0,0.,24.0,0.,24.0,0.,24.0
1986-01-26 08:38:11.610 ,2,0,0.,24.0,0.,24.0,0.,24.0,0.,24.0
1986-01-26 08:38:35.610 ,3,1,0.,24.0,0.,24.0,0.,24.0,0.,24.0
1986-01-26 08:38:59.610 ,3,0,0.,24.0,0.,24.0,0.,24.0,0.,24.0
1986-01-26 08:39:23.610 ,4,1,0.,24.0,1.,24.0,0.,24.0,0.,24.0
1986-01-26 08:39:47.610 ,4,0,0.,24.0,0.,24.0,0.,24.0,0.,24.0
1986-01-26 08:40:11.610 ,5,1,0.,24.0,0.,24.0,0.,24.0,0.,24.0
1986-01-26 08:40:35.610 ,5,0,0.,24.0,0.,24.0,0.,24.0,0.,24.0
1986-01-26 08:40:59.610 ,6,1,0.,24.0,0.,24.0,0.,24.0,0.,24.0
1986-01-26 08:41:23.610 ,6,0,0.,24.0,0.,24.0,0.,24.0,0.,24.0
1986-01-26 08:41:47.610 ,7,1,4.,24.0,0.,24.0,0.,24.0,0.,24.0
1986-01-26 08:42:11.610 ,7,0,33.,24.0,0.,24.0,0.,24.0,0.,24.0
1986-01-26 08:42:35.610 ,7,1,33.,24.0,0.,24.0,0.,24.0,0.,24.0
1986-01-26 08:42:59.610 ,7,0,32.,24.0,0.,24.0,0.,24.0,0.,24.0
1986-01-26 08:43:23.610 ,6,1,17.,24.0,0.,24.0,0.,24.0,0.,24.0
1986-01-26 08:43:47.610 ,6,0,0.,24.0,0.,24.0,0.,24.0,0.,24.0
1986-01-26 08:44:11.610 ,5,1,0.,24.0,0.,24.0,0.,24.0,0.,24.0
1986-01-26 08:44:35.610 ,5,0,0.,24.0,0.,24.0,0.,24.0,0.,24.0
1986-01-26 08:44:59.610 ,4,1,0.,24.0,0.,24.0,0.,24.0,0.,24.0
1986-01-26 08:45:23.610 ,4,0,0.,24.0,0.,24.0,0.,24.0,0.,24.0
1986-01-26 08:45:47.610 ,3,1,0.,24.0,0.,24.0,0.,24.0,0.,24.0
1986-01-26 08:46:11.610 ,3,0,0.,24.0,0.,24.0,0.,24.0,0.,24.0
1986-01-26 08:46:35.610 ,2,1,0.,24.0,0.,24.0,0.,24.0,0.,24.0
1986-01-26 08:46:59.610 ,2,0,0.,24.0,0.,24.0,0.,24.0,0.,24.0
1986-01-26 08:47:23.610 ,1,1,0.,24.0,0.,24.0,0.,24.0,0.,24.0
1986-01-26 08:47:47.610 ,1,0,0.,24.0,1.,24.0,0.,24.0,0.,24.0
1986-01-26 08:48:11.610 ,0,1,0.,24.0,0.,24.0,0.,24.0,0.,24.0
1986-01-26 08:48:35.610 ,0,0,0.,24.0,0.,24.0,0.,24.0,0.,24.0
1986-01-26 08:48:59.610 ,0,1,0.,24.0,0.,24.0,0.,24.0,0.,24.0
1986-01-26 08:49:23.610 ,0,0,0.,24.0,0.,24.0,0.,24.0,0.,24.0
1986-01-26 08:49:47.610 ,1,1,0.,24.0,0.,24.0,0.,24.0,0.,24.0
1986-01-26 08:50:11.610 ,1,0,0.,24.0,0.,24.0,0.,24.0,0.,24.0
1986-01-26 08:50:35.610 ,2,1,0.,24.0,1.,24.0,0.,24.0,0.,24.0
1986-01-26 08:50:59.610 ,2,0,0.,24.0,0.,24.0,0.,24.0,0.,24.0
1986-01-26 08:51:23.610 ,3,1,0.,24.0,0.,24.0,0.,24.0,0.,24.0
1986-01-26 08:51:47.610 ,3,0,0.,24.0,0.,24.0,0.,24.0,0.,24.0
1986-01-26 08:52:11.610 ,4,1,0.,24.0,0.,24.0,0.,24.0,0.,24.0
1986-01-26 08:52:35.610 ,4,0,1.,24.0,0.,24.0,0.,24.0,0.,24.0
1986-01-26 08:52:59.610 ,5,1,0.,24.0,0.,24.0,0.,24.0,0.,24.0
1986-01-26 08:53:23.610 ,5,0,0.,24.0,0.,24.0,0.,24.0,0.,24.0
1986-01-26 08:53:47.610 ,6,1,0.,24.0,0.,24.0,0.,24.0,0.,24.0
1986-01-26 08:54:11.610 ,6,0,0.,24.0,0.,24.0,0.,24.0,0.,24.0
1986-01-26 08:54:35.610 ,7,1,10.,24.0,1.,24.0,0.,24.0,0.,24.0
1986-01-26 08:54:59.610 ,7,0,25.,24.0,0.,24.0,0.,24.0,0.,24.0